Location: Gammelsbach
(49.5261°N, 8.9630°E)
Time: 04:31:38
(UTC+00:00)

Cosmos 1758 - Pass Details

Date: 17 June 2025
Orbit: 489 x 513 km, 82.5° (Epoch: 12 July)

Event Time Altitude Azimuth Distance (km) Brightness Sun altitude
Rises 20:18:44 0° 349° (N) 2,602 7.9 -6.1°
Reaches altitude 10° 20:20:52 10° 349° (NNW) 1,709 6.9 -6.4°
Maximum altitude 20:24:37 83° 261° (W) 505 3.2 -6.8°
Drops below altitude 10° 20:28:17 10° 174° (S) 1,682 5.3 -7.2°
Enters shadow 20:29:14 - 174° (S) 2,072 5.8 -7.3°
